www.pogodaiklimat.ru

Погода и климат >> Архив погоды >> Россия >> Камчатский край >> Семячик


АРХИВ ПОГОДЫ в Семячике

Время (UTC), дата Ветер
(напр.,м/с)
 
Видим.   Явления Облачность Т
(С)
Тd
(С)
f
(%)
Тe
(С)
Тes
(С)
Комфортность P
(гПа)
Po
(гПа)
Тmin
(С)
Tmax
(С)
R
(мм)
R24
(мм)
S
(см)
03 13.05 Ю 3 50 км ясно +5.6 +1.2 73 +2 +13 опасность
простуды
1013.3 1010.0
06 13.05 Ю 3 50 км ясно +5.6 +2.2 79 +2 +6 1012.3 1008.9
09 13.05 штиль 0 50 км 3/0
[Ci sp]
+4.2 +1.9 85 +3 +3 1012.1 1008.7 +6.0
12 13.05 С 1 20 км ясно +2.1 +0.9 92 0 0 1012.0 1008.6
15 13.05 ЮЗ 2 20 км ясно +0.7 -0.2 94 -3 -3 1011.4 1008.0
18 13.05 СВ 2 1000 м дымка 10/10 300 м
[St]
+1.7 +1.1 96 -2 -2 1010.4 1007.0
21 13.05 СВ 1 4000 м дымка 10/10 300 м
[St]
+3.0 +2.3 95 +1 +1 1009.7 1006.3 +0.7
00 14.05 В 2 50 км 9/3
[Sc Ac trans Ci fib]
+5.0 +2.0 81 +2 +8 1007.7 1004.3
03 14.05 В 2 50 км 10/3 600 м
[Sc Ac trans Cc]
+6.4 +2.7 77 +4 +9 1005.5 1002.2
06 14.05 СВ 2 50 км 6/3 600 м
[Sc Ac trans]
+7.3 +3.2 75 +5 +8 1003.5 1000.3
09 14.05 С 2 50 км 10/10 600 м
[Sc]
+4.4 +2.1 85 +2 +2 1001.8 998.5 +8.3
12 14.05 В 2 20 км 10/10 600 м
[Sc]
+3.7 +2.3 91 +1 +1 1000.9 997.6
15 14.05 СВ 6 20 км 10/10 600 м
[Sc]
+2.9 +1.9 93 -3 -3 1000.2 996.9
18 14.05 СВ 4
{11}
10 км слаб. ливневой дождь 10/10 300 м
[Cb cap]
+2.9 +2.2 95 -2 -2 1001.6 998.2
21 14.05 В 3 20 км в посл. час ливневой дождь 10/10 300 м
[St]
+3.3 +2.3 93 -1 -1 1002.9 999.6 +2.6 0.9
00 15.05 В 9-10
{10}
10 км слаб. ливневой дождь 10/10 300 м
[Cb cap]
+3.2 +1.9 91 -4 -4 1006.0 1002.6
03 15.05 С 2
{10}
10 км слаб. ливневой дождь 10/10 300 м
[Cb cap]
+4.3 +2.8 90 +1 +1 1007.9 1004.5
06 15.05 ЮЗ 2 50 км {ливн. осадки} 10/10 600 м
[Sc]
+4.7 +3.2 90 +2 +2 1009.1 1005.8
09 15.05 ЮЗ 1 50 км 10/10 600 м
[Sc]
+5.1 +3.3 88 +4 +4 1011.1 1007.8 +5.4 3
12 15.05 З 2 20 км 10/10 600 м
[Sc]
+3.8 +2.1 89 +1 +1 1013.0 1009.6
15 15.05 ЮЗ 2 20 км 10/10 600 м
[Sc]
+3.1 +1.8 91 0 0 1014.3 1011.0
18 15.05 ЮЗ 2 50 км 9/4 600 м
[Sc Ac trans Ci fib]
+3.5 +1.4 86 +1 +1 1016.0 1012.6
21 15.05 Ю 7 50 км 9/3 600 м
[Sc Ac trans Ci fib]
+5.2 +1.3 76 -0 +1 1017.8 1014.5 +3.0
00 16.05 Ю 8 50 км 4/0
[Ci fib]
+5.3 +2.7 83 -0 +2 1018.9 1015.5
03 16.05 Ю 5 50 км 6/0
[Cc]
+6.4 +2.3 75 +2 +9 1019.8 1016.4
06 16.05 Ю 3 50 км 9/9 600 м
[Sc]
+6.1 +3.1 81 +3 +3 1020.5 1017.1
09 16.05 Ю 4 50 км 10/10 600 м
[Sc]
+5.2 +3.5 89 +1 +1 1021.9 1018.5 +7.2
12 16.05 С 2 20 км 10/10 600 м
[Sc]
+4.4 +3.0 91 +2 +2 1023.7 1020.3
15 16.05 штиль 0 20 км 10/10 600 м
[Sc]
+3.8 +1.4 84 +3 +3 1024.3 1020.9
18 16.05 З 1 50 км 8/8 600 м
[Sc]
+3.1 +1.5 89 +2 +2 1024.9 1021.5
21 16.05 Ю 4 50 км 8/8 600 м
[Sc]
+5.3 +2.5 82 +1 +2 1025.0 1021.6 +3.0
00 17.05 Ю 7 50 км ясно +5.8 +2.8 81 +1 +5 1025.0 1021.6
03 17.05 Ю 5 50 км ясно +6.7 +3.4 79 +3 +10 1025.0 1021.7
06 17.05 Ю 4 50 км 3/3 600 м
[Sc]
+6.3 +3.7 83 +3 +5 1024.1 1020.7
09 17.05 СВ 2 50 км 10/10 600 м
[Sc]
+4.5 +2.9 89 +2 +2 1024.7 1021.3 +6.8
12 17.05 СВ 4 20 км 10/10 600 м
[Sc]
+3.9 +2.8 93 -1 -1 1024.7 1021.3
15 17.05 ЮЗ 1 20 км 10/10 600 м
[Sc]
+2.9 +2.2 95 +1 +1 1023.8 1020.4
18 17.05 ЮЗ 2 50 км 5/5 600 м
[Sc]
+1.4 +0.8 96 -2 -2 1022.2 1018.8
21 17.05 СЗ 5 50 км 8/8 600 м
[Sc]
+10.5 -0.1 48 +8 +9 1021.3 1018.0 +0.8
00 18.05 СЗ 5
{11}
50 км ясно +15.4 -1.4 32 +14 +22 1020.0 1016.7
03 18.05 Ю 4 50 км ясно +12.3 +4.1 57 +11 +20 1019.6 1016.3
06 18.05 Ю 7 50 км ясно +12.2 +1.7 49 +10 +11 1018.4 1015.2
09 18.05 Ю 3 50 км ясно +9.8 +4.5 70 +8 +8 1017.9 1014.6 +17.3
12 18.05 С 2 20 км ясно +5.6 +4.1 90 +3 +3 1018.8 1015.4
15 18.05 штиль 0 20 км ясно +4.9 +3.2 89 +4 +4 1017.9 1014.5
18 18.05 С 2 50 км 3/3 600 м
[Sc]
+3.8 +1.6 86 +1 +1 1017.2 1013.9
21 18.05 Ю 2 50 км 6/3 600 м
[Sc Ac trans Ci fib]
+7.4 +4.3 81 +5 +9 1016.4 1013.1 +3.7
00 19.05 Ю 3 50 км 10/4 600 м
[Sc Ac trans]
+8.0 +5.4 84 +5 +8 1014.9 1011.5
03 19.05 Ю 3 50 км в посл. час ливневой дождь 10/10 600 м
[Sc]
+7.0 +5.7 91 +4 +4 1013.2 1009.9
06 19.05 В 1 50 км {ливн. осадки} 10/10 600 м
[Sc]
+7.8 +6.1 89 +7 +7 1009.9 1006.6
09 19.05 С 4 50 км 10/10 600 м
[Sc]
+5.9 +4.8 93 +2 +2 1006.7 1003.4 +9.6 2
12 19.05 В 1 20 км 10/10 600 м
[Sc]
+5.3 +4.4 94 +4 +4 1005.2 1001.9
15 19.05 З 1 20 км 10/10 600 м
[Sc]
+4.6 +3.8 95 +3 +3 1003.7 1000.4
18 19.05 В 1 50 км 3/3 600 м
[Sc]
+2.9 +2.5 97 +1 +1 1002.6 999.2
21 19.05 ЮЗ 6 50 км {туман} 3/0
[Ac trans]
+10.1 +4.5 68 +7 +9 1001.6 998.3 +1.8
00 20.05 Ю 4
{11}
50 км {туман} 6/0
[Ac trans Ci fib]
+14.4 +2.8 46 +13 +21 1000.4 997.2

 

Местоположение метеостанции Семячик (Камчатский край, Россия): широта 54.12 долгота 159.90 высота над уровнем моря 27 м.

В архиве по умолчанию представлена погода в Семячике за последнюю неделю. Архивные данные за месяц целиком и за предыдущие месяцы, начиная с января 2011 года, Вы можете получить, выбрав интересующий диапазон дат из раскрывающегося списка и нажав кнопку "Ввод!".


*Определитесь, кто Вы:
робот инопланетянин человек

Внимание! Время в таблицах - всемирное. Для получения местного времени необходимо прибавить поправку, которая равна 12 ч.

Смотрите также архив погоды в соседних городах и на ближайших метеорологических станциях:

Погода в Мильково (Камчатский край, Россия) (110 км)
Погода в Пущино (Камчатский край, Россия) (124 км)
Погода в Долиновке (Камчатский край, Россия) (125 км)
Погода в Петропавловск-Камч. 2 (Камчатский край, Россия) (148 км)
Погода в Сосновке (Камчатский край, Россия) (157 км)
Погода в Петропавловском Маяке (Камчатский край, Россия) (159 км)
Погода в Петропавловск-Камчатском (Камчатский край, Россия) (163 км)
Погода в Начиках (Камчатский край, Россия) (183 км)
Погода в Козыревске (Камчатский край, Россия) (215 км)
Погода в Эссо (Камчатский край, Россия) (215 км)

Пояснения к столбцам:

Ветер - указаны скорость ветра в м/с - средняя за 10 мин, порывы в срок и между сроками (в фигурных скобках) и направление, откуда дует ветер: С - северный, СВ - северо-восточный, В - восточный, ЮВ - юго-восточный, Ю - южный, ЮЗ - юго-западный, З - западный, СЗ - северо-западный.
Видимость - горизонтальная дальность видимости в метрах или километрах. При видимости от 1 до 10 км при отсутствии осадков обычно наблюдается дымка, при ухудшении видимости до 1 км и менее - туман. В сухую погоду видимость может ухудшаться дымом, пылью или мглою.
Явления - указаны атмосферные явления, наблюдавшиеся в срок или в последний час перед сроком; фигурными скобками обозначены явления, наблюдавшиеся между сроками (за 1-3 часа до срока); квадратными скобками обозначены град или гололедные отложения с указанием их диаметра в мм.
Облачность - указаны через наклонную черту общая и нижняя облачность в баллах и высота нижней границы облаков в метрах; квадратными скобками обозначены формы облаков: Ci - перистые, Cs - перисто-слоистые, Cc - перисто-кучевые, Ac - высококучевые, As - высокослоистые, Sc - слоисто-кучевые, Ns - слоисто-дождевые, Cu - кучевые, Cb - кучево-дождевые. Подробнее классификацию облаков см. в Атласе облаков (PDF).
T - Температура воздуха - температура, измеренная на высоте 2 м над землей.
Td - Температура точки росы - температура, при понижении до которой содержащийся в воздухе водяной пар достигнет насыщения.
f - Относительная влажность воздуха - влажноcть воздуха, измеренная на высоте 2 м над землей.
Te - Эффективная температура - температура, которую ощущает одетый по сезону человек в тени. Характеристика душности погоды. При расчете учитывается влияние влажности воздуха и скорости ветра на теплоощущения человека.
Tes - Эффективная температура на солнце - температура, которую ощущает человек, с поправкой на солнечный нагрев. Характеристика знойности погоды. Зависит от высоты солнца над горизонтом, облачности и скорости ветра. Ночью, в пасмурную погоду, а также при ветре 12 м/с и более поправка равна нулю.
P - Атмосферное давление - приведенное к уровню моря атмосферное давление.
Po - Атмосферное давление - измеренное на уровне метеостанции атмосферное давление.
Tmin - Минимальная температура - минимум температуры воздуха на высоте 2 м над землей.
Tmax - Максимальная температура - максимум температуры воздуха на высоте 2 м над землей.
R - Количество осадков - Количество выпавших осадков за период времени, мм. При наведении курсора мыши на число - период времени, за который выпало указанное количество осадков.
R24 - Количество осадков - Количество выпавших осадков за 24 часа, мм.
S - Снежный покров - Высота снежного покрова, см. При наведении курсора мыши на число - состояние снежного покрова и степень покрытия местности в баллах.